Orbital Elements at Epoch 2459200.5 (2020-Dec-17.0) TDB
Reference: JPL 26 (heliocentric ecliptic J2000)
Element | Value | Uncertainty (1-sigma) | Units |
e | .1304055694841403 | 3.4912e-08 | |
a | 2.342888177753046 | 1.0829e-08 | au |
q | 2.0373625106955 | 8.316e-08 | au |
i | 6.085607132316302 | 4.3371e-06 | deg |
node | 244.3079661969325 | 3.897e-05 | deg |
peri | 66.51570794437423 | 4.278e-05 | deg |
M | 25.31427059618797 | 1.7471e-05 | deg |
tp | 2459108.393838058691 (2020-Sep-15.89383806) | 6.3483e-05 | TDB |
period | 1309.862678953283 3.59 | 9.0815e-06 2.486e-08 | d yr |
n | .274837970257827 | 1.9055e-09 | deg/d |
Q | 2.648413844810592 | 1.2241e-08 | au |
|
| | Orbit Determination Parameters
Additional Information
|